Temperature
22 21 20 20 19 20 23 24 24 24 25 26 26 26 25 24 23 23 24 24 24 23 21 20 20 20 21 21 21 21 21 21 21 21 21 21 20 20 20 20 20 19 19 19 19 19 19 19 19
22 21 20 20 20 22 24 24 24 25 26 26 27 26 25 24 24 24 24 24 24 23 22 21 20 20 21 21 21 21 21 21 21 21 21 21 20 20 20 20 20 19 19 19 19 19 19 19 19
22 21 21 19 21 23 25 25 24 25 26 26 26 26 25 25 25 25 25 24 23 23 22 21 21 21 21 21 21 21 21 21 21 21 21 21 20 20 20 20 20 19 19 19 19 19 19 19 19
22 21 21 20 23 23 24 24 24 25 26 26 26 25 25 25 25 25 25 24 23 23 22 21 21 21 21 21 21 21 21 21 21 21 21 20 20 20 20 19 19 19 19 19 19 19 19 19 19
22 22 21 21 23 24 24 25 25 25 25 26 26 25 25 25 25 25 25 24 24 23 22 22 21 21 21 21 21 21 21 21 21 21 20 20 20 20 19 19 19 19 19 19 19 19 19 19 19
23 21 21 22 24 25 24 25 24 25 25 26 26 25 25 25 25 25 25 25 24 23 22 22 21 21 21 21 21 21 21 21 21 20 20 20 20 20 20 19 19 19 19 20 20 19 19 19 19
23 20 22 24 24 25 25 25 24 24 24 26 26 25 25 25 25 25 24 24 24 23 22 21 21 21 20 20 20 20 20 20 20 20 20 20 20 20 20 20 20 20 20 20 20 20 19 19 19
24 20 23 22 24 25 26 25 25 25 25 26 26 25 25 26 24 24 23 23 23 22 22 21 20 20 20 20 20 20 20 20 20 20 20 20 20 20 20 20 20 20 19 19 19 19 19 19 19
24 19 21 23 25 26 25 24 26 26 26 26 26 26 26 26 24 23 22 22 22 21 21 20 20 20 19 19 19 19 19 19 19 19 19 19 19 19 19 19 19 19 19 19 19 19 19 19 19
23 19 22 23 25 26 25 25 26 25 25 26 27 26 25 25 24 23 22 21 21 20 19 19 19 19 19 19 19 19 19 19 19 19 19 19 19 19 19 19 19 19 19 19 19 18 18 18 18
22 21 22 24 26 26 26 26 26 25 24 25 26 26 25 23 22 21 20 20 19 19 18 18 18 18 18 18 18 18 19 19 19 19 19 19 19 19 19 19 19 19 19 18 18 18 18 18 18
23 23 24 25 27 26 26 26 25 24 24 25 25 24 24 22 20 20 19 19 19 19 19 18 18 18 19 19 19 19 19 19 19 19 19 18 19 19 19 18 19 18 18 18 18 18 18 18 18
23 24 25 26 26 25 24 23 22 21 22 22 22 22 20 20 19 19 19 19 19 19 19 19 19 19 19 20 20 20 20 20 19 19 18 18 18 18 18 18 18 18 18 18 18 17 18 17 18
24 24 24 25 25 24 21 19 19 18 18 19 18 17 18 18 18 19 19 19 19 19 19 19 19 19 19 19 19 19 19 19 19 19 18 18 17 18 18 18 18 18 18 17 17 17 17 17 17
24 23 22 23 22 23 21 18 18 17 17 16 16 16 17 17 18 18 18 18 18 18 18 18 18 18 18 18 18 18 18 18 18 18 18 18 18 18 18 18 18 18 17 17 17 17 17 17 17
23 22 22 22 20 20 19 17 17 17 16 16 15 15 15 16 16 17 17 17 18 17 17 17 17 17 17 17 17 18 17 17 17 18 18 18 18 17 17 18 18 17 17 17 17 17 17 17 17
21 21 22 21 19 18 17 17 17 16 16 15 14 14 14 15 16 16 16 17 17 17 17 17 16 17 17 17 17 16 16 16 16 17 17 17 17 17 18 18 17 17 17 17 17 17 17 17 17
22 22 22 20 18 18 17 16 16 16 15 15 14 14 14 15 15 15 16 17 17 17 17 17 16 16 16 16 16 16 16 15 16 16 17 17 17 17 18 17 17 17 16 16 16 16 16 16 16
23 23 22 20 19 17 16 16 16 15 15 14 14 14 14 14 15 15 16 16 16 16 16 16 16 16 16 16 15 15 15 16 16 16 16 17 17 17 17 17 17 17 16 16 16 16 16 16 16
22 23 22 19 19 17 16 15 16 15 14 14 13 13 14 15 15 16 16 16 16 16 16 16 16 16 16 16 16 16 16 16 16 16 17 17 17 17 17 17 17 17 17 16 16 16 16 16 16
24 24 23 20 18 17 16 16 15 15 14 14 14 14 14 15 15 15 16 16 16 16 16 16 16 16 16 16 16 16 16 16 16 17 17 17 17 17 17 17 17 17 17 17 17 16 16 16 16
23 24 24 22 19 17 18 16 16 15 14 14 14 14 14 14 15 15 16 16 16 16 16 16 16 16 16 16 16 16 16 16 16 16 16 17 17 17 17 17 17 17 17 17 17 17 17 16 16
24 22 21 21 19 17 17 16 16 15 14 14 14 14 14 14 15 15 16 16 16 16 16 16 16 16 16 15 15 15 15 15 15 15 16 16 16 16 17 17 17 17 17 17 17 17 17 17 16
23 21 20 17 17 18 17 17 16 15 15 14 14 14 14 15 15 15 15 15 16 16 16 16 16 15 15 15 15 15 15 15 15 15 15 15 15 15 15 16 16 16 16 16 16 16 16 16 16
21 20 19 19 17 18 17 17 17 16 15 15 15 15 15 15 15 15 15 15 15 15 15 15 15 15 15 14 14 14 14 14 14 14 14 14 14 14 14 14 15 15 15 15 15 15 15 16 16
21 20 19 20 19 17 17 17 16 15 15 15 15 15 15 15 15 15 15 15 15 15 14 14 14 14 14 14 14 13 13 13 13 13 13 13 13 13 13 13 13 13 14 15 15 15 15 15 15
21 18 18 16 17 17 17 17 16 15 14 14 15 15 15 15 15 15 15 15 14 14 14 14 13 13 13 13 13 13 13 13 13 12 12 12 12 12 12 12 12 12 13 13 13 14 14 14 15
20 18 16 16 17 17 17 17 15 14 14 13 14 14 15 15 15 14 14 14 13 13 13 13 13 13 13 13 13 12 12 12 12 12 12 12 11 11 11 11 11 12 12 12 12 13 13 13 14
19 18 15 14 15 16 17 15 14 13 13 13 14 14 14 14 14 13 13 13 13 12 12 12 12 12 12 12 12 12 12 12 12 11 11 11 11 11 11 10 10 11 11 11 12 12 12 12 13
18 17 16 16 16 15 14 14 13 13 13 14 14 14 14 14 13 13 12 12 12 12 12 12 12 12 12 12 12 11 11 11 11 11 11 11 11 11 10 10 10 10 10 10 11 11 11 12 12
Wind_Speed
12 10 3 2 2 2 3 2 2 4 2 1 2 2 2 3 5 4 1 10 15 15 17 21 22 21 20 19 19 18 18 18 18 18 17 17 17 17 17 16 16 15 14 13 12 11 11 11 10
7 4 1 2 3 3 4 2 3 3 3 2 1 2 2 1 1 3 5 8 15 15 16 19 22 21 20 19 18 18 17 17 17 17 16 16 16 16 16 16 15 15 14 13 13 12 12 12 11
5 2 3 3 2 2 5 3 4 3 3 2 1 3 3 2 4 7 7 12 13 12 14 18 23 22 21 19 18 17 17 16 16 16 16 15 15 16 16 15 15 14 13 13 12 12 12 12 11
4 3 4 4 3 5 5 5 3 4 3 1 3 3 2 1 7 8 13 15 15 12 13 18 23 22 21 19 18 17 16 16 15 15 15 14 14 14 15 15 14 13 12 12 11 11 11 11 11
3 4 4 3 6 6 5 4 2 3 3 1 2 3 1 3 9 13 17 17 17 13 11 16 22 22 20 19 18 17 16 15 14 14 14 13 13 13 13 14 13 12 12 11 11 11 11 11 11
4 4 4 3 7 6 5 3 3 3 3 2 1 2 1 4 9 12 15 15 14 13 9 12 20 20 19 18 17 16 15 14 14 13 13 13 13 12 12 12 12 12 12 12 12 12 12 13 13
4 4 3 4 5 6 4 2 2 4 4 3 1 2 1 4 6 10 10 10 9 9 8 6 11 15 17 16 15 15 14 14 14 14 14 14 14 14 14 14 14 14 14 14 14 14 14 14 14
5 4 2 3 4 6 4 2 3 4 5 3 2 4 4 5 9 10 9 9 8 7 6 4 5 7 8 11 13 13 13 14 14 15 15 15 15 16 16 16 15 16 16 16 16 16 16 15 15
4 5 2 4 4 6 3 4 5 3 4 4 3 2 1 13 15 12 10 8 6 6 5 5 5 4 4 4 7 10 11 13 14 15 16 16 14 14 15 16 17 18 17 17 17 18 18 17 17
5 4 8 6 4 6 5 6 5 3 5 6 4 2 10 16 15 13 11 9 7 6 5 5 5 5 4 1 1 3 6 8 11 11 13 13 12 13 15 15 19 19 19 19 19 19 19 18 15
5 7 6 6 7 6 5 4 3 3 6 7 4 4 12 13 12 11 10 10 9 8 7 6 6 6 4 2 2 2 4 6 8 10 12 11 10 11 13 12 14 16 18 16 16 17 16 15 13
3 7 6 6 5 4 4 2 1 1 5 5 5 8 12 13 12 12 12 12 12 11 9 7 5 4 2 1 2 3 4 5 6 9 12 10 7 7 8 9 11 12 12 10 11 10 13 14 15
5 6 6 8 9 5 3 6 5 9 11 12 17 19 19 18 16 14 13 13 12 11 9 8 6 4 4 4 5 5 4 5 6 8 12 14 9 10 8 7 9 11 12 9 7 8 8 9 10
5 7 9 9 7 1 10 10 10 13 12 19 22 22 20 19 17 15 13 12 10 8 6 4 4 5 5 5 4 4 3 5 5 6 11 14 12 9 10 9 8 7 9 10 7 7 8 8 7
4 7 9 8 8 3 9 15 16 13 13 20 21 20 19 17 15 13 10 8 7 4 2 1 3 3 4 6 7 5 4 5 4 5 10 12 13 11 8 8 8 7 8 8 6 5 2 5 5
4 5 7 9 14 9 11 11 15 13 14 17 17 16 16 15 14 11 9 7 5 4 4 4 5 5 6 5 6 4 4 5 5 6 8 11 14 14 7 7 7 6 5 5 4 4 3 4 4
5 5 4 7 15 7 10 9 12 12 13 15 14 14 14 13 13 10 9 8 7 6 5 5 6 6 6 5 5 5 4 4 3 5 7 10 13 12 6 6 5 4 4 4 4 3 3 3 3
5 4 3 4 7 13 15 12 11 11 12 13 13 12 12 12 10 8 8 8 7 7 7 7 8 8 7 5 4 3 2 2 2 4 7 10 10 9 6 5 5 4 4 3 3 3 2 2 3
4 2 0 4 5 9 14 12 11 10 11 12 11 11 11 10 8 8 9 9 8 8 9 9 9 8 6 3 3 3 2 2 2 5 8 9 8 7 6 5 5 5 5 5 5 3 3 2 2
5 2 3 6 7 7 10 11 8 10 10 9 9 9 8 8 9 9 9 9 8 8 7 7 7 7 7 4 3 2 2 2 2 3 5 4 5 5 6 6 6 6 4 5 5 4 3 2 3
2 4 4 7 6 5 7 6 4 5 7 8 8 7 6 7 7 7 7 6 6 6 6 5 6 6 6 6 3 2 2 2 3 5 5 6 5 3 3 4 5 6 6 6 6 6 6 4 3
4 3 3 8 8 4 4 3 1 0 3 4 4 4 5 5 4 5 5 5 5 5 5 4 4 4 5 5 4 5 3 3 3 4 4 6 7 6 3 2 4 5 5 6 7 7 5 5 4
2 4 5 4 6 5 4 5 2 2 1 1 1 1 2 4 4 5 6 6 6 6 5 5 4 3 3 3 3 3 2 1 2 3 5 6 6 7 7 5 3 4 5 6 6 7 6 5 5
2 6 6 6 5 4 3 3 2 3 4 3 2 2 3 5 5 6 7 7 8 7 6 6 5 4 4 2 1 1 1 1 3 4 4 4 4 4 6 6 5 4 5 7 7 8 8 7 6
6 6 5 6 5 2 3 2 1 1 3 3 3 3 4 5 6 7 8 8 9 9 8 7 7 7 6 5 4 3 3 3 2 3 3 3 3 3 4 5 5 5 5 6 7 8 9 9 8
3 6 6 3 3 3 4 1 2 1 2 2 1 2 4 6 7 8 9 8 8 9 9 8 8 9 8 7 7 6 6 4 4 5 4 4 3 4 4 4 4 5 6 5 5 7 9 8 9
3 4 4 6 2 2 3 2 3 4 3 2 1 2 4 7 8 9 9 9 9 10 10 9 9 9 9 9 8 8 8 7 7 7 6 5 5 5 5 4 4 5 5 5 5 6 8 8 9
6 6 6 5 3 1 4 3 4 6 4 2 2 4 6 8 9 9 8 8 8 9 10 10 9 9 10 10 10 9 9 9 9 7 8 8 7 7 6 6 5 5 5 4 3 4 5 7 8
7 6 6 5 4 4 2 2 3 2 1 2 3 5 8 9 9 9 8 8 9 10 10 10 11 11 11 11 11 11 11 11 9 9 10 10 8 8 8 8 7 6 6 5 3 3 4 6 6
5 5 3 4 2 2 1 4 2 1 2 2 5 8 9 9 9 8 9 9 10 11 12 12 12 12 13 13 12 13 12 11 11 12 12 11 11 10 10 8 8 8 7 6 5 5 4 4 6
Wind_Direction
137 137 142 138 80 33 311 267 235 307 309 251 174 174 149 176 198 232 23 140 137 148 159 167 165 162 159 158 159 158 156 153 151 150 153 156 160 164 166 167 168 170 171 170 170 169 164 159 158
134 151 138 75 70 11 304 240 250 247 242 260 220 132 105 194 142 122 133 146 143 149 158 165 167 165 162 161 162 162 159 157 155 156 159 163 166 169 170 172 173 174 175 175 175 173 170 167 166
156 190 92 70 73 225 280 250 241 263 263 209 130 100 130 201 159 167 166 146 141 149 158 168 169 168 165 165 165 165 164 161 161 163 166 169 171 173 175 176 178 179 178 176 176 177 174 173 173
140 70 60 58 282 245 242 258 260 292 284 188 135 103 105 140 161 161 147 147 146 152 159 171 171 172 169 169 170 170 168 167 167 169 173 175 176 177 179 181 184 183 181 181 182 182 181 181 182
79 89 54 354 280 267 262 280 264 273 283 325 118 125 112 63 117 137 149 153 154 154 158 172 173 174 174 174 174 174 173 172 173 175 179 182 184 185 186 188 190 190 190 192 194 195 193 193 193
69 73 76 296 284 287 288 288 312 280 292 325 112 122 112 117 134 153 156 156 156 154 152 169 174 176 177 178 179 180 180 180 181 183 186 189 192 195 196 198 200 201 203 205 206 206 205 204 204
123 112 174 244 286 301 287 281 268 284 296 287 179 144 177 158 156 146 143 136 134 141 141 150 167 176 180 183 185 187 189 190 192 193 195 197 199 202 205 208 211 213 215 215 216 216 215 215 215
136 114 184 265 271 284 280 267 268 234 264 273 176 186 222 177 130 117 107 107 113 118 126 116 125 148 168 183 192 197 201 204 205 206 207 208 210 212 214 215 219 221 222 224 225 226 225 225 225
100 83 211 238 245 272 261 261 279 246 264 275 230 198 130 126 124 116 104 98 110 120 105 98 92 91 110 155 201 210 217 219 219 220 220 219 219 221 224 225 226 230 231 232 232 234 234 232 232
103 154 225 231 233 271 273 242 250 278 280 276 273 112 108 126 130 129 126 126 121 112 95 80 79 71 70 127 250 252 243 240 233 230 231 229 222 223 230 234 235 236 239 240 241 242 243 242 238
161 201 238 257 257 264 272 266 222 207 268 265 254 132 119 123 128 124 112 107 105 98 93 78 74 65 60 35 354 295 266 255 247 240 236 236 231 227 232 232 241 244 244 244 247 247 242 239 235
219 249 241 260 261 284 265 296 25 316 303 356 47 96 104 106 98 99 103 106 107 103 102 101 104 107 123 186 228 235 240 243 243 242 240 237 236 232 229 231 230 233 238 241 241 242 237 235 233
239 257 254 248 264 249 52 35 37 3 356 46 69 77 80 84 86 88 95 102 108 113 122 128 139 159 195 218 232 222 227 236 237 238 240 238 237 239 235 232 231 230 230 234 235 237 234 230 229
260 269 280 292 290 142 91 49 31 7 36 67 71 73 76 79 83 85 86 92 100 113 124 139 182 195 219 237 248 247 235 245 245 243 245 245 243 240 236 234 232 230 227 230 230 232 230 227 226
304 309 327 5 350 14 96 46 24 14 66 73 74 75 71 69 69 72 78 89 96 102 113 230 249 254 259 252 245 244 246 252 249 251 257 258 256 248 237 231 232 229 225 225 227 227 212 216 217
7 13 355 4 7 20 73 57 18 22 71 75 74 73 71 65 60 54 48 46 43 29 358 348 332 312 292 278 274 260 253 253 248 261 271 272 263 249 232 228 229 221 209 203 204 200 200 205 209
20 5 349 11 16 39 72 68 25 31 62 69 68 67 66 60 48 41 36 31 22 11 357 357 337 324 322 313 295 271 253 256 260 266 264 264 258 242 218 217 219 201 191 192 193 180 178 188 201
300 329 17 67 41 67 81 73 40 37 56 63 63 61 58 54 40 31 31 32 25 17 13 6 356 353 346 336 321 319 317 262 260 256 256 253 246 229 204 205 201 183 178 182 183 171 166 177 187
248 262 157 125 138 71 79 72 45 34 43 49 50 52 49 42 27 27 25 24 23 18 13 6 2 354 352 342 332 335 313 302 257 250 252 248 238 216 200 194 185 180 183 189 180 164 169 182 159
221 204 110 99 117 101 94 72 47 36 37 40 44 45 40 29 21 18 16 15 9 5 1 1 0 356 354 342 316 299 298 299 294 299 298 287 260 229 209 193 188 182 178 180 180 168 161 178 171
228 183 176 149 111 110 117 67 29 24 34 36 34 30 26 30 15 0 0 357 352 354 353 357 354 356 356 351 350 350 349 345 351 352 350 341 319 265 235 212 200 190 183 191 193 184 172 178 187
305 296 190 153 143 165 178 128 222 335 18 20 15 11 5 352 343 330 324 324 324 317 321 332 339 348 354 4 34 48 45 17 343 329 339 348 358 354 339 275 233 217 204 200 200 192 182 165 177
248 44 73 105 123 94 43 112 202 196 214 271 283 306 307 296 293 290 290 289 290 290 295 299 304 320 336 0 41 70 64 2 302 327 349 358 1 5 4 350 305 251 232 222 209 194 190 181 176
111 71 55 57 73 68 337 112 199 211 191 193 203 226 256 270 278 279 277 278 281 279 274 270 274 280 284 296 333 76 66 348 348 348 350 348 344 349 359 356 346 310 264 241 226 211 201 196 189
58 72 25 5 14 302 322 80 252 192 161 181 206 242 262 268 274 278 280 280 279 279 275 270 267 270 269 269 264 251 245 247 259 276 296 309 316 316 330 343 337 328 303 266 238 221 215 203 199
49 113 142 210 237 292 353 28 329 85 123 126 196 259 274 277 279 281 282 285 289 291 289 282 272 269 268 266 265 260 253 247 246 246 246 256 256 266 282 307 315 317 315 303 260 234 224 213 210
71 72 130 125 118 42 327 331 33 60 55 63 36 326 307 301 298 296 299 303 304 303 299 291 279 275 274 269 266 265 257 248 248 249 247 249 252 259 263 280 290 297 305 305 286 252 237 222 217
79 118 79 85 107 360 329 8 350 342 350 24 13 330 315 309 305 306 310 309 306 303 302 301 288 276 272 270 267 268 259 252 249 247 246 247 249 252 262 267 270 279 287 291 295 275 253 235 228
19 44 77 88 116 133 291 294 347 323 19 39 339 316 306 303 303 301 298 297 297 299 298 296 291 285 281 277 271 267 264 257 250 247 248 247 246 245 249 254 258 264 268 266 268 276 273 253 243
72 55 86 100 54 101 180 262 315 102 77 358 310 301 300 303 302 295 296 301 303 303 302 297 291 285 280 277 275 271 267 262 253 249 247 243 241 241 240 244 250 257 259 254 252 260 262 261 258
Height
1504 1504 1505 1507 1508 1512 1508 1499 1493 1490 1487 1485 1485 1486 1486 1488 1492 1494 1486 1485 1489 1493 1497 1501 1506 1509 1512 1515 1517 1519 1522 1524 1526 1528 1529 1531 1532 1534 1535 1537 1538 1539 1540 1541 1543 1544 1545 1546 1547
1504 1505 1507 1507 1511 1517 1508 1495 1493 1488 1485 1483 1483 1484 1484 1485 1486 1485 1484 1487 1490 1494 1497 1501 1506 1510 1513 1515 1518 1520 1522 1525 1526 1528 1530 1531 1532 1534 1536 1537 1539 1540 1541 1542 1543 1544 1545 1546 1547
1504 1505 1507 1508 1512 1515 1504 1492 1488 1485 1483 1483 1483 1483 1484 1484 1484 1485 1486 1488 1492 1495 1499 1502 1506 1510 1513 1516 1519 1521 1523 1525 1527 1528 1530 1531 1533 1534 1536 1538 1539 1540 1542 1543 1543 1544 1545 1546 1547
1504 1506 1507 1511 1510 1502 1495 1488 1485 1484 1482 1481 1481 1482 1483 1484 1484 1485 1487 1489 1492 1495 1499 1503 1507 1511 1514 1517 1519 1522 1524 1525 1527 1529 1530 1531 1533 1534 1536 1538 1539 1540 1541 1542 1543 1544 1545 1546 1547
1504 1505 1510 1515 1508 1497 1489 1486 1485 1484 1482 1481 1481 1481 1482 1484 1485 1486 1488 1490 1492 1495 1500 1504 1508 1511 1515 1518 1520 1522 1524 1526 1528 1529 1531 1532 1533 1535 1536 1538 1539 1540 1541 1542 1543 1544 1545 1546 1547
1505 1505 1517 1518 1506 1494 1488 1486 1485 1484 1482 1482 1482 1481 1482 1484 1485 1487 1489 1491 1494 1497 1501 1505 1509 1513 1516 1518 1521 1523 1525 1527 1529 1530 1531 1532 1534 1535 1536 1538 1539 1540 1541 1542 1543 1544 1545 1546 1547
1505 1509 1514 1510 1507 1498 1489 1486 1485 1484 1482 1482 1482 1482 1482 1483 1486 1489 1491 1493 1496 1499 1503 1507 1511 1514 1517 1520 1522 1524 1526 1528 1529 1530 1532 1533 1534 1535 1536 1537 1538 1539 1540 1541 1542 1543 1544 1545 1546
1502 1507 1510 1511 1506 1499 1489 1486 1484 1483 1482 1481 1482 1481 1481 1483 1485 1489 1492 1494 1497 1501 1505 1509 1512 1515 1518 1520 1523 1525 1527 1528 1529 1530 1531 1532 1533 1534 1534 1535 1536 1537 1538 1539 1539 1540 1541 1542 1544
1502 1512 1516 1507 1501 1495 1489 1487 1484 1482 1481 1479 1480 1481 1483 1483 1485 1488 1492 1495 1498 1502 1506 1509 1512 1515 1518 1520 1523 1524 1526 1527 1528 1529 1530 1530 1530 1531 1532 1533 1534 1534 1535 1536 1537 1538 1539 1540 1541
1501 1513 1508 1498 1494 1491 1488 1486 1484 1482 1480 1478 1478 1481 1482 1483 1485 1489 1492 1495 1499 1503 1507 1511 1513 1516 1519 1521 1522 1523 1524 1525 1526 1526 1527 1528 1528 1529 1530 1530 1531 1532 1532 1533 1534 1535 1536 1537 1538
1499 1503 1497 1493 1490 1489 1487 1484 1483 1483 1482 1479 1479 1480 1481 1484 1487 1491 1495 1499 1502 1506 1509 1512 1515 1517 1519 1520 1521 1521 1522 1522 1523 1523 1524 1525 1525 1525 1526 1527 1527 1528 1529 1530 1531 1532 1533 1533 1534
1498 1495 1493 1490 1488 1487 1485 1485 1485 1486 1486 1482 1480 1480 1481 1485 1490 1495 1498 1501 1504 1507 1510 1513 1515 1517 1517 1517 1517 1517 1517 1517 1517 1518 1519 1521 1521 1522 1523 1523 1524 1524 1525 1526 1527 1528 1529 1529 1530
1495 1492 1489 1486 1485 1485 1486 1488 1490 1491 1489 1484 1481 1481 1484 1488 1493 1496 1500 1503 1505 1507 1509 1511 1513 1514 1515 1514 1512 1511 1511 1511 1511 1512 1514 1516 1517 1518 1519 1519 1520 1520 1521 1522 1523 1523 1524 1525 1526
1492 1489 1486 1483 1481 1483 1487 1494 1494 1497 1493 1487 1485 1486 1489 1492 1495 1497 1500 1502 1505 1507 1508 1509 1509 1509 1508 1507 1505 1505 1504 1504 1505 1506 1508 1510 1512 1513 1514 1514 1515 1515 1516 1517 1518 1518 1519 1520 1521
1491 1489 1486 1485 1482 1483 1484 1498 1504 1502 1496 1492 1492 1492 1493 1495 1497 1499 1501 1503 1505 1506 1506 1505 1505 1504 1501 1500 1499 1498 1497 1497 1498 1500 1503 1505 1507 1507 1509 1510 1510 1510 1510 1511 1511 1512 1513 1514 1515
1491 1495 1498 1492 1489 1488 1492 1513 1510 1506 1501 1498 1498 1497 1497 1498 1499 1501 1502 1502 1503 1503 1503 1502 1502 1500 1498 1496 1493 1491 1490 1490 1491 1495 1497 1500 1502 1504 1505 1505 1505 1505 1505 1506 1506 1507 1508 1509 1510
1500 1506 1503 1500 1497 1495 1500 1514 1514 1510 1506 1503 1502 1502 1501 1502 1502 1502 1502 1502 1502 1502 1501 1500 1499 1497 1494 1492 1489 1485 1483 1484 1485 1490 1492 1495 1498 1500 1501 1500 1501 1501 1501 1502 1502 1503 1503 1504 1505
1506 1504 1504 1508 1509 1504 1509 1517 1517 1514 1510 1508 1506 1505 1504 1503 1504 1504 1504 1503 1503 1502 1501 1499 1498 1495 1492 1489 1486 1483 1480 1480 1483 1488 1489 1493 1496 1498 1498 1497 1497 1498 1498 1499 1499 1500 1500 1501 1502
1497 1500 1504 1506 1508 1512 1517 1520 1519 1517 1513 1511 1509 1508 1507 1507 1507 1507 1506 1505 1505 1503 1501 1499 1498 1496 1493 1490 1487 1485 1483 1483 1485 1488 1490 1492 1494 1495 1495 1495 1495 1495 1495 1496 1497 1497 1497 1497 1498
1496 1499 1503 1508 1510 1514 1520 1522 1521 1519 1517 1516 1514 1512 1512 1511 1510 1510 1509 1508 1507 1505 1503 1501 1499 1497 1495 1492 1490 1488 1487 1487 1488 1488 1489 1490 1491 1492 1493 1493 1493 1492 1493 1493 1494 1494 1494 1494 1495
1492 1494 1497 1505 1512 1515 1519 1526 1525 1523 1522 1520 1518 1517 1515 1514 1514 1513 1512 1511 1510 1507 1505 1503 1501 1498 1496 1494 1491 1489 1488 1487 1487 1486 1486 1486 1487 1489 1489 1489 1490 1490 1490 1491 1491 1491 1491 1491 1491
1495 1487 1488 1496 1510 1520 1518 1534 1529 1527 1526 1524 1522 1520 1519 1518 1517 1516 1515 1513 1512 1510 1507 1504 1502 1499 1496 1494 1491 1489 1487 1486 1485 1484 1483 1483 1483 1484 1484 1485 1486 1486 1487 1487 1488 1488 1488 1488 1488
1487 1487 1490 1496 1506 1519 1520 1529 1532 1527 1528 1526 1525 1523 1522 1520 1519 1517 1516 1515 1512 1510 1508 1505 1502 1499 1496 1493 1490 1488 1486 1484 1482 1481 1480 1479 1479 1479 1479 1479 1480 1481 1482 1483 1484 1484 1485 1485 1485
1484 1490 1497 1505 1513 1526 1525 1526 1531 1527 1526 1525 1524 1524 1522 1521 1520 1518 1517 1514 1512 1509 1506 1504 1501 1498 1494 1492 1489 1486 1484 1482 1480 1478 1476 1475 1475 1474 1474 1473 1473 1474 1476 1477 1479 1480 1481 1481 1482
1489 1503 1521 1523 1532 1532 1524 1527 1528 1522 1522 1523 1523 1523 1522 1521 1519 1517 1515 1513 1510 1507 1504 1501 1498 1495 1492 1489 1486 1484 1481 1479 1477 1474 1473 1471 1470 1469 1468 1467 1467 1467 1468 1470 1472 1474 1475 1477 1477
1494 1502 1524 1532 1535 1534 1527 1528 1527 1522 1522 1522 1522 1522 1521 1520 1518 1516 1513 1510 1507 1504 1500 1497 1493 1491 1488 1486 1483 1481 1478 1475 1473 1471 1469 1467 1465 1464 1463 1462 1461 1461 1461 1462 1464 1466 1468 1470 1472
1496 1507 1509 1525 1529 1536 1532 1526 1523 1523 1523 1523 1522 1522 1520 1519 1517 1514 1510 1507 1503 1499 1496 1492 1488 1486 1483 1481 1479 1476 1474 1471 1469 1466 1464 1463 1461 1459 1458 1456 1455 1455 1455 1455 1456 1458 1460 1463 1465
1497 1505 1516 1526 1536 1540 1533 1532 1535 1528 1526 1524 1522 1521 1520 1518 1514 1511 1507 1504 1500 1496 1492 1488 1485 1481 1478 1475 1473 1470 1468 1465 1463 1460 1459 1457 1456 1454 1453 1451 1450 1449 1449 1449 1449 1450 1452 1454 1457
1506 1510 1521 1531 1532 1540 1542 1541 1532 1529 1526 1525 1523 1521 1518 1515 1511 1508 1504 1501 1497 1493 1489 1485 1481 1477 1473 1469 1466 1463 1460 1457 1455 1453 1451 1450 1449 1448 1447 1446 1445 1444 1443 1443 1442 1443 1444 1446 1448
1508 1515 1520 1529 1535 1538 1544 1545 1530 1528 1526 1524 1522 1519 1516 1512 1508 1505 1501 1498 1493 1489 1485 1480 1476 1471 1467 1463 1459 1455 1451 1449 1446 1444 1443 1442 1441 1440 1440 1439 1439 1438 1437 1437 1436 1436 1437 1438 1439